Home   Weather   Cluj-Napoca   Past weeks

Flag for Romania Past Weather in Cluj-Napoca, Romania — Yesterday and Last 2 Weeks

Now
57 °F

Clear.


Feels Like: 57 °F
Forecast: 47 / 56 °F
Wind: 2 mph from North

Location: Cluj Airport-Napoca

Current Time: Apr 29, 2017 at 4:32:29 am

Latest Report: Apr 29, 2017 at 3:30 am


Visibility: 10 mi

Pressure: 29.80 "Hg

Humidity: 72%

Dew Point: 48 °F

Location of Cluj-NapocaLocation

Past Weather in Cluj-Napoca — Graph

°F

Cluj-Napoca Temperature Yesterday

Maximum temperature yesterday: 81 °F (at 5:00 pm)
Minimum temperature yesterday: 50 °F (at 5:00 am)
Average temperature yesterday: 64 °F

High & Low Weather Summary for the Past Weeks

 TemperatureHumidityPressure
High81 °F (Apr 28, 5:00 pm)100% (Apr 20, 3:30 am)30.15 "Hg (Apr 20, 3:30 am)
Low28 °F (Apr 18, 6:30 am)19% (Apr 26, 6:30 pm)29.77 "Hg (Apr 28, 3:00 pm)
Average48 °F61%29.95 "Hg
* Reported Apr 14 3:00 am — Apr 29 3:00 am, Cluj-Napoca, Weather by CustomWeather, © 2017

Note: Actual official high and low records may vary slightly from our data, if they occured in-between our weather recording intervals... More about our weather records

Advertising

Cluj-Napoca Weather History for the Previous 24 Hours

Scroll right to see more
 ConditionsComfort  
Time TempWeatherWind HumidityBarometerVisibility
3:00 am
Sat, Apr 29
59 °FClear.3 mph63%29.80 "Hg10 mi
2:30 am61 °FClear.2 mph63%29.80 "Hg10 mi
2:00 am63 °FClear.2 mph56%29.80 "Hg10 mi
1:30 am66 °FClear.7 mph49%29.80 "Hg10 mi
1:00 am68 °FClear.9 mph43%29.80 "Hg10 mi
12:30 am64 °FClear.3 mph52%29.80 "Hg10 mi
11:30 pm
Fri, Apr 28
66 °FClear.7 mph49%29.80 "Hg10 mi
11:00 pm63 °FClear.3 mph56%29.80 "Hg10 mi
10:30 pm63 °FClear.3 mph56%29.80 "Hg10 mi
10:00 pm63 °FClear.6 mph52%29.80 "Hg10 mi
9:30 pm64 °FClear.3 mph52%29.80 "Hg10 mi
9:00 pm66 °FClear.2 mph46%29.77 "Hg10 mi
8:30 pm68 °FClear.9 mph43%29.77 "Hg10 mi
8:00 pm72 °FSunny.9 mph38%29.77 "Hg10 mi
7:30 pm73 °FSunny.14 mph36%29.77 "Hg10 mi
7:00 pm75 °FSunny.13 mph34%29.77 "Hg10 mi
6:30 pm75 °FSunny.12 mph34%29.77 "Hg10 mi
6:00 pm77 °FSunny.16 mph32%29.77 "Hg10 mi
5:30 pm77 °FPassing clouds.14 mph34%29.77 "HgN/A
5:00 pm81 °FPassing clouds.12 mph28%29.77 "HgN/A
4:30 pm79 °FPassing clouds.12 mph30%29.77 "HgN/A
4:00 pm79 °FPassing clouds.10 mph30%29.77 "HgN/A
3:30 pm79 °FPassing clouds.10 mph28%29.77 "HgN/A
3:00 pm79 °FPassing clouds.12 mph28%29.77 "HgN/A
2:30 pm77 °FSunny.13 mph36%29.80 "Hg10 mi
2:00 pm77 °FSunny.15 mph34%29.80 "Hg10 mi
1:30 pm77 °FSunny.17 mph36%29.80 "Hg10 mi
1:00 pm75 °FSunny.17 mph39%29.80 "Hg10 mi
12:30 pm72 °FSunny.15 mph44%29.83 "Hg10 mi
12:00 pm70 °FSunny.15 mph43%29.86 "Hg10 mi
11:30 am68 °FSunny.14 mph46%29.86 "Hg10 mi
10:30 am68 °FPassing clouds.13 mph43%29.86 "HgN/A
10:00 am70 °FPassing clouds.8 mph43%29.86 "HgN/A
9:30 am64 °FPassing clouds.7 mph56%29.86 "HgN/A
9:00 am59 °FSunny.8 mph68%29.86 "Hg10 mi
8:30 am55 °FPassing clouds.3 mph77%29.89 "HgN/A
8:00 am54 °FSunny.No wind77%29.89 "Hg10 mi
7:30 am52 °FSunny.1 mph88%29.89 "Hg10 mi
7:00 am52 °FSunny.No wind82%29.89 "Hg10 mi
6:30 am50 °FSunny.No wind88%29.89 "Hg10 mi
6:00 am50 °FClear.3 mph88%29.89 "Hg10 mi
5:30 am50 °FClear.3 mph88%29.89 "Hg10 mi
5:00 am50 °FClear.1 mph88%29.89 "Hg10 mi
4:30 am52 °FClear.3 mph82%29.89 "Hg10 mi
4:00 am55 °FPassing clouds.7 mph72%29.89 "HgN/A
Weather by CustomWeather, © 2017

See weather overviewHow to use our weather pages